Satellite-Ground Cal/Val Site Overpasses Predictions

Prediction of Satellite NPP Overpassing Cal/Val Site: Antarctic Dome C

Ground Cal/Val Site Location: Latitude: -75.10, Longitude: 123.35; Satellite-Ground Site NADIR distance within 100 km.

Table of predicted overpasses for the next 14.0 days since TLE Epoch: 3/9/2024
Interval Starting Time Ending Time Minimum Distance Time Minimum Distance (km)
1 03/10/2024 15:01:37 03/10/2024 15:02:01 03/10/2024 15:01:49 56.93
2 03/11/2024 14:42:49 03/11/2024 14:43:14 03/11/2024 14:43:02 52.20
3 03/12/2024 07:44:32 03/12/2024 07:44:51 03/12/2024 07:44:41 73.14
4 03/13/2024 07:25:39 03/13/2024 07:26:07 03/13/2024 07:25:53 34.64
5 03/15/2024 15:08:08 03/15/2024 15:08:17 03/15/2024 15:08:12 95.48
6 03/16/2024 14:49:10 03/16/2024 14:49:39 03/16/2024 14:49:24 15.68
7 03/18/2024 07:32:01 03/18/2024 07:32:30 03/18/2024 07:32:15 3.77
8 03/21/2024 14:55:31 03/21/2024 14:56:00 03/21/2024 14:55:45 21.52
